Probability
5 6 7 8 10 10 9 8 8 10 13 16 17 15 12 12 14 15 15 15 15 14 12 10 9 9 12 13 9 5 3 2 1 0 0 0 0 0 0 0 0 0 0
5 6 6 7 9 8 7 6 6 8 10 12 14 13 12 13 13 13 12 12 12 13 13 10 8 9 12 12 8 5 3 2 2 1 0 0 0 0 0 0 0 0 0
5 5 4 5 6 5 4 3 3 5 8 10 12 12 11 11 11 10 9 9 9 11 12 10 8 8 9 8 6 5 3 3 2 1 0 0 0 0 0 0 0 0 0
5 5 3 3 4 3 2 1 2 5 7 9 11 11 10 9 9 8 7 7 7 9 10 10 8 7 6 6 5 4 4 3 2 1 0 0 0 0 0 0 0 0 0
4 4 3 3 3 2 1 0 1 3 5 7 9 10 10 9 8 7 7 6 7 7 9 9 8 7 6 6 6 4 4 4 2 0 0 0 0 0 0 0 0 0 0
3 3 3 2 2 1 0 0 0 1 2 5 7 8 9 8 7 6 6 6 6 7 8 8 7 7 6 6 6 4 4 4 3 1 0 0 0 0 0 0 0 0 0
3 3 1 1 1 0 0 0 0 0 2 5 6 6 6 5 4 3 3 4 6 6 6 6 6 6 6 6 5 4 3 4 3 2 1 0 0 0 0 0 0 0 0
3 2 1 0 0 0 0 0 0 1 3 4 4 3 2 1 1 0 1 3 5 5 5 4 4 4 4 4 4 3 3 3 3 2 1 0 0 0 0 0 0 0 0
3 2 1 0 0 0 0 0 0 0 2 3 3 1 0 0 0 0 0 2 3 4 4 3 3 3 3 3 3 3 3 3 3 3 1 0 0 0 0 0 0 0 0
1 1 1 0 0 0 0 0 0 0 1 2 2 1 0 0 0 0 1 2 3 3 3 3 3 2 1 2 3 3 3 3 2 2 1 0 0 0 0 0 0 0 0
0 0 0 0 0 0 0 0 0 0 0 1 1 0 0 0 0 0 1 2 3 3 3 3 3 1 0 0 1 2 2 1 1 1 1 0 0 0 0 0 0 0 0
0 0 0 0 0 0 0 0 0 0 0 0 0 0 0 0 0 0 1 3 3 3 3 3 2 1 0 0 0 1 1 0 0 0 0 0 0 0 0 0 0 0 0
0 0 0 0 0 0 0 0 0 0 0 0 0 0 0 0 0 1 2 3 3 3 3 3 2 1 0 0 0 0 0 0 0 0 0 0 0 0 0 0 0 0 0
0 0 0 0 0 0 0 0 0 0 0 0 0 0 0 0 0 1 2 3 3 3 3 3 3 1 1 0 0 0 0 0 0 0 0 0 0 0 0 0 0 0 0
0 0 0 0 0 0 0 0 0 0 0 0 0 0 0 0 0 1 2 3 3 3 3 3 3 3 2 1 0 0 0 0 0 0 0 0 0 0 0 0 0 0 0
0 0 0 0 0 0 0 0 0 0 0 0 0 0 0 0 0 0 1 2 2 2 2 2 2 2 2 1 0 0 0 0 0 0 0 0 0 0 0 0 0 0 0
0 0 0 0 0 0 0 0 0 0 0 0 0 0 0 0 0 0 0 1 1 1 1 1 1 1 1 0 0 0 0 0 0 0 0 0 0 0 0 0 0 0 0
0 0 0 0 0 0 0 0 0 0 0 0 0 0 0 0 0 0 0 0 0 0 0 0 0 0 0 0 0 0 0 0 0 0 0 0 0 0 0 0 0 0 0
0 0 0 0 0 0 0 0 0 0 0 0 0 0 0 0 0 0 0 0 0 0 0 0 0 0 0 0 0 0 0 0 0 0 0 0 0 0 0 0 0 0 0
0 0 0 0 0 0 0 0 0 0 0 0 0 0 0 0 0 0 0 0 0 0 0 0 0 0 0 0 0 0 0 0 0 0 0 0 0 0 0 0 0 0 0
0 0 0 0 0 0 0 0 0 0 0 0 0 0 0 0 0 0 0 0 0 0 0 0 0 0 0 0 0 0 0 0 0 0 0 0 0 0 0 0 0 0 0
0 0 0 0 0 0 0 0 0 0 0 0 0 0 0 0 0 0 0 0 0 0 0 0 0 0 0 0 0 0 0 0 0 0 0 0 0 0 0 0 0 0 0
0 0 0 0 0 0 0 0 0 0 0 0 0 0 0 0 0 0 0 0 0 0 0 0 0 0 0 0 0 0 0 0 0 0 0 0 0 0 0 0 0 0 0
0 0 0 0 0 0 0 0 0 0 0 0 0 0 0 0 0 0 0 0 0 0 0 0 0 0 0 0 0 0 0 0 0 0 0 0 0 0 0 0 0 0 0
0 0 0 0 0 0 0 0 0 0 0 0 0 0 0 0 0 0 0 0 0 0 0 0 0 0 0 0 0 0 0 0 0 0 0 0 0 0 0 0 0 0 0
0 0 0 0 0 0 0 0 0 0 0 0 0 0 0 0 0 0 0 0 0 0 0 0 0 0 0 0 0 0 0 0 0 0 0 0 0 0 0 0 0 0 0
Wind_Speed
1 2 2 3 4 3 3 2 1 1 1 0 0 0 1 1 1 1 1 1 1 1 1 1 1 1 1 1 1 0 1 1 1 1 2 3 2 2 2 2 2 2 3
2 3 3 2 3 2 2 2 1 1 1 1 1 1 1 1 1 1 1 1 1 1 1 1 1 1 1 1 0 0 0 1 0 1 1 2 4 3 3 2 2 2 2
3 2 2 2 2 2 1 1 1 1 1 1 1 1 2 2 2 1 1 1 1 1 1 1 1 1 1 1 1 1 1 1 1 1 2 1 2 3 3 3 2 2 2
3 2 2 1 1 0 1 1 1 1 1 1 1 1 1 0 2 1 1 2 1 1 1 1 1 1 1 2 2 1 1 1 1 1 1 2 3 2 2 3 2 3 3
2 2 1 1 0 1 1 0 1 2 2 1 0 1 0 1 1 1 2 2 2 1 1 2 1 1 1 2 2 2 2 2 2 2 1 1 1 2 2 3 3 3 3
2 1 1 1 1 1 1 1 1 2 2 2 1 1 1 1 1 1 2 2 2 1 2 2 2 2 2 2 2 2 2 2 2 2 2 2 2 2 2 3 3 3 3
1 1 1 1 1 1 1 1 1 2 2 2 1 1 1 2 1 2 2 2 2 2 3 2 2 2 2 2 2 2 2 2 3 3 3 3 3 2 2 2 2 3 3
1 1 1 1 1 0 0 1 1 2 2 2 2 1 1 1 1 2 2 2 2 3 3 2 2 2 2 2 1 1 2 2 2 3 3 2 3 2 2 2 2 2 3
1 0 1 1 1 1 1 1 1 2 2 2 1 1 1 0 1 2 2 2 2 3 3 2 2 2 2 1 1 1 2 2 2 3 3 2 3 2 2 2 3 3 2
1 1 1 1 1 1 1 1 1 1 2 1 1 1 1 1 1 1 2 2 2 2 2 2 2 2 2 1 1 1 2 2 2 2 2 2 2 1 1 2 2 3 3
1 1 1 1 1 1 0 0 1 1 1 1 1 1 1 1 1 1 2 2 2 2 2 2 2 2 2 1 1 2 2 2 3 2 2 2 1 1 1 1 1 1 2
1 1 1 2 2 1 1 1 1 1 1 1 0 1 1 1 1 2 2 2 2 2 1 1 1 1 1 1 1 2 2 2 2 2 0 1 1 0 1 1 1 1 2
1 2 2 2 2 2 1 1 1 1 1 0 1 1 2 2 1 2 2 2 2 2 2 1 1 1 1 1 1 1 1 1 1 1 0 1 0 1 1 1 1 1 1
1 1 2 2 2 2 1 1 1 1 1 1 1 1 1 1 2 1 1 2 1 1 1 1 1 1 1 1 1 1 1 1 1 0 0 1 1 1 2 1 2 1 1
1 1 2 2 2 2 2 2 1 1 1 1 1 1 1 1 1 1 2 2 1 1 1 1 1 1 1 1 2 1 1 1 1 1 1 1 1 1 1 1 1 1 1
0 1 1 1 1 1 1 1 2 2 1 1 0 1 1 1 1 1 2 2 2 2 2 2 2 2 2 3 3 2 1 1 1 1 2 2 2 3 3 3 3 2 2
1 1 1 1 2 1 1 1 2 1 1 1 1 1 1 1 2 2 2 2 1 1 2 2 1 1 2 3 3 3 2 1 1 1 2 2 2 3 2 4 5 4 4
1 1 1 2 2 2 1 2 1 1 1 1 1 1 1 1 1 2 2 2 1 1 1 1 1 1 2 3 3 3 2 2 2 1 1 1 2 3 2 2 3 4 4
2 3 2 2 1 2 1 1 2 2 1 1 1 1 1 1 1 1 2 1 1 1 1 0 0 1 2 3 2 2 2 2 2 2 2 2 2 4 3 2 3 4 5
1 1 1 0 1 2 1 1 1 1 1 1 1 1 0 0 1 2 2 1 0 1 1 1 1 0 1 2 2 2 1 2 2 3 3 4 4 4 3 1 1 3 4
2 1 1 1 2 2 0 0 0 1 2 1 1 1 1 1 2 1 1 0 0 1 1 1 2 1 1 2 2 2 2 0 1 2 3 3 6 5 4 2 2 3 3
1 1 1 2 2 1 1 0 2 3 2 1 1 1 2 1 0 0 1 1 0 1 1 1 2 2 2 2 2 2 2 1 0 2 3 4 5 5 5 4 4 3 2
2 2 2 2 2 2 2 2 3 3 1 1 1 2 2 2 1 1 1 1 0 0 1 1 1 2 2 2 3 2 3 3 1 3 5 6 6 5 4 5 5 3 1
2 2 1 2 3 3 2 3 4 2 1 1 2 2 1 2 2 1 1 1 1 1 1 1 1 2 2 2 2 3 3 3 3 3 5 6 5 4 4 4 3 2 1
2 1 2 3 4 3 3 3 2 1 2 2 2 2 2 2 1 1 2 2 3 3 3 3 3 2 2 4 4 2 3 2 2 2 2 2 3 3 4 3 3 2 2
2 2 2 3 4 3 3 3 2 1 1 1 2 2 2 2 1 1 2 3 3 4 4 5 4 3 5 5 4 4 4 3 2 1 1 2 2 2 3 3 3 2 2
Wind_Direction
95 84 85 90 90 85 83 68 60 9 34 38 47 8 316 316 321 259 210 203 209 204 200 253 275 222 220 238 262 255 295 306 332 11 324 313 294 276 254 251 249 250 240
42 53 51 55 74 75 67 37 33 23 356 268 193 223 223 254 257 283 314 253 220 219 208 211 226 230 231 264 262 151 2 320 42 124 28 331 327 310 282 267 249 248 245
138 102 55 35 64 69 64 28 346 343 311 329 42 17 23 12 4 334 318 301 254 227 215 211 209 219 189 228 244 191 160 255 282 164 154 167 249 293 302 275 261 258 246
132 116 83 53 93 132 67 34 338 324 324 351 107 103 74 293 271 267 279 297 278 250 231 215 204 206 203 223 240 212 203 196 253 274 213 200 190 210 291 307 289 273 260
145 134 133 146 169 111 86 12 350 325 319 332 159 126 246 252 266 293 315 307 297 279 245 218 217 226 227 234 244 245 224 203 212 221 233 248 242 209 206 276 296 295 268
130 125 114 104 80 84 38 3 358 326 327 333 318 180 226 253 288 305 312 307 305 301 280 237 227 229 229 235 234 235 225 221 223 224 209 203 211 224 212 238 268 277 278
93 85 56 24 76 83 31 355 351 326 322 328 311 242 221 213 212 247 269 284 291 284 272 259 246 244 237 235 233 233 242 234 232 233 232 225 224 210 209 225 255 272 285
91 152 211 210 197 223 318 332 334 316 312 315 300 283 216 198 231 245 245 257 254 256 258 256 251 248 243 243 246 254 253 249 244 249 244 244 246 223 207 205 216 278 299
119 157 247 237 229 252 263 258 278 307 312 308 298 307 274 241 269 281 276 267 265 262 262 259 257 262 259 240 226 247 267 265 255 253 251 250 252 240 228 215 197 201 254
48 18 329 288 263 256 256 273 245 270 289 300 293 333 281 271 271 291 295 289 280 272 270 275 277 272 277 276 244 269 267 266 266 258 258 260 258 255 240 225 219 205 206
8 20 325 313 323 323 331 346 325 319 312 310 309 319 289 281 289 291 284 282 287 288 274 263 259 257 269 274 253 257 265 263 274 277 263 266 254 251 253 227 219 223 199
17 19 344 355 6 357 338 301 287 297 282 301 333 314 308 332 334 315 300 297 302 303 291 285 280 276 307 288 252 274 284 262 268 279 310 307 321 295 259 236 233 239 224
36 18 1 355 348 342 331 298 263 270 305 345 353 353 343 345 322 303 311 332 341 335 333 355 17 15 360 7 341 317 309 304 259 238 205 260 345 312 283 256 251 252 264
59 28 349 333 330 326 338 337 335 338 6 22 31 16 341 330 314 319 341 336 341 345 350 15 39 48 38 26 2 5 4 8 346 341 180 227 219 253 267 264 259 253 267
26 14 332 326 334 342 347 354 343 339 6 41 28 338 323 349 354 351 337 341 350 352 339 17 37 33 46 9 2 12 26 23 8 0 342 277 290 290 283 277 262 256 250
341 339 331 350 345 341 336 348 337 322 36 75 22 336 9 35 353 336 340 353 356 353 15 38 50 42 26 8 18 27 38 31 21 352 337 327 350 342 337 324 307 278 238
234 284 288 288 291 303 329 327 312 338 51 55 5 13 57 40 346 342 359 350 351 20 25 15 37 41 4 10 16 22 51 42 16 354 345 352 1 355 353 339 339 327 304
214 231 250 280 290 301 323 334 352 41 49 32 7 17 74 40 353 351 348 336 347 8 359 2 7 17 353 3 14 22 42 37 14 348 326 332 325 328 330 340 341 328 317
217 222 222 236 275 299 307 4 13 38 45 15 340 343 76 56 344 328 304 293 321 334 327 306 347 6 327 335 349 22 37 26 347 328 311 293 292 309 332 353 334 326 319
231 220 235 264 298 293 313 48 18 29 336 288 270 272 293 125 264 258 266 268 247 274 321 354 325 312 303 329 353 39 73 32 338 328 322 314 310 310 322 311 289 300 295
237 205 172 215 257 271 68 43 325 266 258 254 261 304 310 261 239 248 271 284 341 11 8 356 323 318 306 328 8 44 88 83 325 324 317 310 320 319 317 306 252 260 271
246 212 206 257 267 259 150 218 261 259 265 275 275 289 292 283 273 262 303 319 24 46 348 349 333 323 319 338 352 19 16 343 281 295 299 305 322 328 326 321 313 317 330
244 232 214 252 276 251 194 217 255 256 255 293 283 278 292 296 270 230 257 297 312 170 276 303 304 306 313 326 337 329 322 327 315 293 306 316 323 329 325 324 329 334 345
250 244 225 246 271 265 245 234 244 234 207 242 275 276 285 304 306 285 246 224 244 233 247 250 265 286 306 308 317 318 316 328 326 318 318 324 328 338 331 331 335 328 280
261 230 222 234 254 261 261 262 256 216 211 241 265 275 264 269 289 291 262 239 238 217 211 218 210 214 262 267 267 277 285 284 283 316 337 344 344 348 341 334 329 326 332
264 261 246 245 254 257 263 270 267 218 214 249 267 266 257 258 257 268 303 301 272 270 240 222 212 226 237 268 291 300 299 297 285 76 329 311 311 306 306 311 314 315 312